Regional Weather Roundup
Issued by NWS Grand Forks, ND

Home | Current Version | Previous Version | Text Only | Print | Product List | Glossary Off
Versions: 1 2 3 4 5 6 7 8 9 10 11 12 13 14 15 16 17 18 19 20 21 22 23 24 25 26 27 28 29 30 31 32 33 34 35 36 37 38 39 40 41 42 43 44 45 46 47 48 49 50

000
ASUS43 KFGF 081231
RWRFGF
PRAIRIE TO PINES  WEATHER ROUNDUP
NATIONAL WEATHER SERVICE EASTERN NORTH DAKOTA/GRAND FORKS ND
600 AM CST THU DEC 08 2016

 **SATELLITE DATA USED TO AUGMENT SKY COVER AT AUTOMATED STATIONS**
 *****  WEATHER ACROSS EASTERN NORTH DAKOTA  *****

CITY           SKY/WX    TMP DP  RH WIND       PRES   REMARKS
GRAND FORKS    FLURRIES  16  10  77 NW22G28   30.41R WCI  -2
6HR MIN TEMP:  16; 6HR MAX TEMP:  19;

GRAND FRKS AFB FLURRIES  14   9  79 N18       30.42R WCI  -3
DEVILS LAKE    FLURRIES   7   3  84 NW18      30.45R WCI -12
6HR MIN TEMP:   7; 6HR MAX TEMP:  12; 6HR PCP: TRACE;

FARGO          CLOUDY    17  10  74 NW22      30.40R WCI   0
WAHPETON ARPT  CLOUDY    14   9  79 NW20G26   30.41R WCI  -3
$$

 ***** WEATHER ACROSS CENTRAL AND WESTERN NORTH DAKOTA  *****

CITY           SKY/WX    TMP DP  RH WIND       PRES   REMARKS
BISMARCK       CLOUDY     4  -1  80 NW17G28   30.57R WCI -16
6HR MIN TEMP:   4; 6HR MAX TEMP:   5; 6HR PCP:  0.02;

MINOT          PTCLDY     2  -4  76 W14       30.56R WCI -16
6HR MIN TEMP:   2; 6HR MAX TEMP:   6; 6HR PCP: TRACE;

JAMESTOWN      CLOUDY     6   2  83 NW29G35   30.45R BLWGSNOWWCI -17
6HR MIN TEMP:   5; 6HR MAX TEMP:   8;

MINOT AFB      MOCLDY    -1  -6  78 NW18      30.55R WCI -22
GARRISON         N/A      1  -4  79 NW24      30.54R WCI -22
WILLISTON      CLOUDY     1  -6  72 W7        30.63S WCI -12
6HR MIN TEMP:  -2; 6HR MAX TEMP:   1;

DICKINSON      MOCLDY    -8 -12  83 NW10      30.53R WCI -26
6HR MIN TEMP:  -8; 6HR MAX TEMP:  -3;

HETTINGER      MOCLDY    -8 -12  83 NW7       30.56R WCI -23
6HR MIN TEMP:  -6; 6HR MAX TEMP:  -1;

$$

 *****  OTHER AIRPORT OBSERVATIONS IN OUR AREA  *****

CITY           SKY/WX    TMP DP  RH WIND       PRES   REMARKS
WALHALLA       LGT SNOW  14  14 100 NW21G28   30.45R WCI  -4
GRAFTON AIRPOR LGT SNOW  14  12  92 NW22G31   30.44R WCI  -4
VALLEY CITY AR FLURRIES   7   5  92 NW22G29   30.46R WCI -14
CANDO          CLOUDY     9   5  85 NW15      30.50R WCI  -8
CAVALIER APRT  LGT SNOW  14  10  85 NW18G26   30.44R WCI  -3
GWINNER        PTSUNNY   10   5  79 NW22      30.45R WCI  -9
ROLLA          CLOUDY     5   1  85 NW22      30.46R WCI -16
 ***** THE ABOVE OBSERVATIONS ARE NON NWS ARE NOT QUALITY
       CONTROLLED AND MAY MIS-REPORT RAIN FOR SNOW...
$$

  *****  WEATHER ACROSS NORTHERN MINNESOTA  *****

CITY           SKY/WX    TMP DP  RH WIND       PRES   REMARKS
FLAG ISLAND    CLOUDY    19  16  86 NW20      30.27R WCI   4
WARROAD        FLURRIES  16  12  86 NW12      30.29R WCI   3
ROSEAU         FLURRIES  18  12  79 NW12      30.31R WCI   5
HALLOCK        CLOUDY    16  12  86 NW22      30.38R WCI  -2
THF RVR FALLS  NOT AVBL
BAUDETTE       FLURRIES  20  16  84 NW15      30.23R WCI   6
6HR MIN TEMP:  20; 6HR MAX TEMP:  21; 6HR PCP: TRACE;

WASKISH        LGT SNOW  18  16  93 NW12G17   30.24R WCI   5
CROOKSTON      CLOUDY    16  12  86 N23G29    30.39R FOG     WCI  -2
STEPHEN NDAWN    N/A     12  12 100 NW20        N/A  WCI  -6
GREENBUSH NDAW   N/A     16  12  86 NW18        N/A  WCI  -1
$$
  *****  WEATHER ACROSS CENTRAL AND WEST MINNESOTA  *****

CITY           SKY/WX    TMP DP  RH WIND       PRES   REMARKS
FOSSTON        LGT SNOW  14  12  92 NW12      30.31R WCI   0
BEMIDJI        LGT SNOW  17  13  86 NW14G22   30.24R WCI   3
PARK RAPIDS    LGT SNOW  18  11  74 NW14      30.24R WCI   4
6HR MIN TEMP:  18; 6HR MAX TEMP:  19; 6HR PCP: TRACE;

ELBOW LAKE     LGT SNOW  13  11  92 NW22      30.36R WCI  -6
WADENA         MIX PCPN  16  10  79 NW15G21   30.26R WCI   1
DETROIT LAKES  LGT SNOW  18  14  86 NW21G28   30.31R WCI   1
MOORHEAD       MIX PCPN  16  10  79 NW20      30.40R WCI  -1
FERGUS FALLS   LGT SNOW  16  12  86 NW23      30.40R WCI  -2
MORRIS MN      LGT SNOW  12   9  85 NW26G33   30.35R WCI  -8
STAPLES        FLURRIES  18  12  79 NW14G22   30.25R WCI   4
$$
  *****  WEATHER ELSEWHERE ACROSS MINNESOTA  *****

CITY           SKY/WX    TMP DP  RH WIND       PRES   REMARKS
DULUTH         FLURRIES  21  16  81 NW16G22   30.08R WCI   7
6HR MIN TEMP:  20; 6HR MAX TEMP:  22; 6HR PCP:  0.01;

INTRNTL FALLS  LGT SNOW  19  15  84 NW8       30.18R VSB 1   WCI   9
6HR MIN TEMP:  19; 6HR MAX TEMP:  21; 6HR PCP:  0.01;

ELY            PTCLDY    18  16  93 NW8       30.08R WCI   7
CLOQUET        CLOUDY    19  14  79 NW14G23   30.12R WCI   6
WHEATON        CLOUDY    12  10  92 W21G30    30.43R WCI  -6
BRAINERD       CLOUDY    18  13  80 NW15      30.22R WCI   4
6HR MIN TEMP:  18; 6HR MAX TEMP:  20;

HIBBING        LGT SNOW  18  14  84 NW20      30.12R FOG     WCI   2
6HR MIN TEMP:  17; 6HR MAX TEMP:  21; 6HR PCP: TRACE;

ALEXANDRIA     CLOUDY    16  12  84 NW21G26   30.28R WCI  -1
6HR MIN TEMP:  12; 6HR MAX TEMP:  17; 6HR PCP: TRACE;

SAINT CLOUD    CLOUDY    19  14  81 NW15      30.23R WCI   5
6HR MIN TEMP:  14; 6HR MAX TEMP:  19; 6HR PCP: TRACE;

MINNEAPOLIS    MOCLDY    17  11  77 NW15      30.23R WCI   2
6HR MIN TEMP:  16; 6HR MAX TEMP:  17; 6HR PCP: TRACE;

$$

  *****  WEATHER ACROSS SOUTH DAKOTA  *****

CITY           SKY/WX    TMP DP  RH WIND       PRES   REMARKS
SIOUX FALLS    PTCLDY     8   3  80 NW20G31   30.44R WCI -11
6HR MIN TEMP:   8; 6HR MAX TEMP:   9; 6HR PCP: TRACE;

BROOKINGS      FLURRIES   7   2  80 NW15      30.40R WCI -10
WATERTOWN      CLOUDY     7   2  80 NW20      30.40R HAZE    WCI -13
6HR MIN TEMP:   7; 6HR MAX TEMP:   9; 6HR PCP: TRACE;

HURON          CLEAR      6   1  80 NW21G31   30.52R WCI -14
6HR MIN TEMP:   6; 6HR MAX TEMP:   8; 6HR PCP: TRACE;

SISSETON         N/A     11   5  77 NW24      30.41R WCI  -9
ABERDEEN       CLOUDY     8   1  73 NW20G26   30.50R WCI -11
6HR MIN TEMP:   8; 6HR MAX TEMP:  10; 6HR PCP: TRACE;

MITCHELL       CLEAR      8   2  76 NW20      30.54R WCI -11
PIERRE         CLOUDY     7   1  76 NW25      30.56R WCI -15
6HR MIN TEMP:   6; 6HR MAX TEMP:   8; 6HR PCP: TRACE;

MOBRIDGE       CLOUDY     6  -3  66 NW18      30.54R WCI -13
RAPID CITY     CLEAR     -3 -10  72 N8        30.53R WCI -18
6HR MIN TEMP:  -4; 6HR MAX TEMP:   5;

$$

  *****  SOME WEATHER IN NEARBY STATES *****

CITY           SKY/WX    TMP DP  RH WIND       PRES   REMARKS
GLASGOW MT     CLOUDY    -3  -8  79 W8        30.65R WCI -18
6HR MIN TEMP:  -6; 6HR MAX TEMP:  -1;

GREAT FALLS MT CLOUDY    -3  -8  79 NE6       30.49S WCI -15
6HR MIN TEMP:  -3; 6HR MAX TEMP:   0;

CHEYENNE WY    CLOUDY   -14 -19  79 W8        30.30S WCI -31
6HR MIN TEMP: -16; 6HR MAX TEMP: -12;

SCOTTSBLUFF NE CLOUDY    -9 -14  78 NW9       30.51S WCI -26
6HR MIN TEMP:  -9; 6HR MAX TEMP:  -2;

OMAHA NE       PTCLDY    12   3  67 NW21      30.53R WCI  -7
6HR MIN TEMP:  12; 6HR MAX TEMP:  16;

DES MOINES IA  PTCLDY    13   4  67 NW20G30   30.42R WCI  -5
6HR MIN TEMP:  13; 6HR MAX TEMP:  18; 6HR PCP: TRACE;

DAVENPORT IA   MOCLDY    15   7  70 W29G36    30.30R WCI  -5
6HR MIN TEMP:  14; 6HR MAX TEMP:  19; 6HR PCP: TRACE;

CHICAGO IL     FLURRIES  20  12  71 W14       30.18R WCI   7
6HR MIN TEMP:  20; 6HR MAX TEMP:  24; 6HR PCP: TRACE;

EAU CLAIRE WI  LGT SNOW  18  14  84 W9        30.14R FOG     WCI   7
6HR MIN TEMP:  15; 6HR MAX TEMP:  18; 6HR PCP: TRACE;

LA CROSSE WI   CLOUDY    19  11  70 W10G21    30.21R WCI   7
6HR MIN TEMP:  18; 6HR MAX TEMP:  19; 6HR PCP: TRACE;

$$

  *****  SOME NATIONAL WEATHER *****

CITY           SKY/WX    TMP DP  RH WIND       PRES   REMARKS
LA GUARDIA NY  CLOUDY    43  29  57 NW9       29.98R
6HR MIN TEMP:  43; 6HR MAX TEMP:  45;

RALEIGH NC     CLOUDY    48  46  93 CALM      30.03R
6HR MIN TEMP:  48; 6HR MAX TEMP:  50;

ATLANTA GA     MOCLDY    42  37  82 NW10      30.17R
6HR MIN TEMP:  41; 6HR MAX TEMP:  44;

NEW ORLEANS LA CLOUDY    56  53  90 NE13      30.23R
6HR MIN TEMP:  56; 6HR MAX TEMP:  58;

OKLAHOMA CITY  MOCLDY    22  16  78 N14       30.61R WCI   9
6HR MIN TEMP:  22; 6HR MAX TEMP:  28;

ALBUQUERQUE NM CLOUDY    24  12  60 E20G30    30.31R WCI  10
6HR MIN TEMP:  24; 6HR MAX TEMP:  32;

SALT LAKE CITY MOCLDY    21  11  65 E5        30.27F WCI  15
6HR MIN TEMP:  20; 6HR MAX TEMP:  22;

LOS ANGELES CA MOCLDY    52  44  74 CALM      30.17S
6HR MIN TEMP:  51; 6HR MAX TEMP:  58;

BOISE ID       MOCLDY    18  11  74 SE10      30.30F WCI   6
6HR MIN TEMP:  17; 6HR MAX TEMP:  19;

SEATTLE WA     PTCLDY   C1F1C2F2C3F3C4F4C5F5C6F6C7F7C8F8C9F9CaFaCbFbCcFcCd!



USA.gov is the U.S. government's official web portal to all federal, state and local government web resources and services.